This is the latest recevied weather packets stored in our database for station/object SQ7IQO. If no packets are shown the sender has not sent any weather packets the latest 10 day(s).
| Time | Temp. | Humidity | Pressure | Rain* | Wind** | Luminosity | Snow |
|---|---|---|---|---|---|---|---|
| 1787744258 | 20.56° C | 59% | 1023.7 hPa | 0 mm | 0 m/s | - | - |
| 1787744198 | 20.56° C | 59% | 1023.7 hPa | 0 mm | 0 m/s | - | - |
| 1787744138 | 20.56° C | 59% | 1023.7 hPa | 0 mm | 0 m/s | - | - |
| 1787744078 | 21.11° C | 56% | 1023.7 hPa | 0 mm | 0 m/s | - | - |
| 1787744018 | 21.67° C | 58% | 1023.7 hPa | 0 mm | 0 m/s | - | - |
| 1787743958 | 22.22° C | 58% | 1023.7 hPa | 0 mm | 0.45 m/s, ° | - | - |
| 1787743898 | 22.22° C | 56% | 1023.7 hPa | 0 mm | 0 m/s | - | - |
| 1787743838 | 21.67° C | 57% | 1023.7 hPa | 0 mm | 0 m/s | - | - |
| 1787743778 | 21.67° C | 55% | 1023.7 hPa | 0 mm | 0 m/s | - | - |
| 1787743718 | 21.67° C | 58% | 1023.7 hPa | 0 mm | 0 m/s | - | - |
| 1787743658 | 21.67° C | 56% | 1023.7 hPa | 0 mm | 0 m/s | - | - |
| 1787743598 | 22.22° C | 56% | 1023.8 hPa | 0 mm | 0.45 m/s, ° | - | - |
| 1787743538 | 22.22° C | 57% | 1023.8 hPa | 0 mm | 0 m/s | - | - |
| 1787743478 | 21.67° C | 57% | - | 0 mm | 0 m/s | - | - |
| 1787743418 | 21.67° C | 59% | 1023.8 hPa | 0 mm | 0.45 m/s, ° | - | - |
| 1787743358 | 21.67° C | 55% | 1023.8 hPa | 0 mm | 0 m/s | - | - |
| 1787743298 | 21.67° C | 59% | 1023.8 hPa | 0 mm | 0 m/s | - | - |
| 1787743238 | 22.22° C | 58% | 1023.7 hPa | 0 mm | 0.45 m/s, ° | - | - |
| 1787743178 | 22.22° C | 58% | 1023.8 hPa | 0 mm | 0 m/s | - | - |
| 1787743118 | 22.22° C | 58% | 1023.8 hPa | 0 mm | 0 m/s | - | - |
| 1787743058 | 22.78° C | 56% | 1023.8 hPa | 0 mm | 0.45 m/s, ° | - | - |
| 1787742998 | 22.22° C | 56% | 1023.8 hPa | 0 mm | 0 m/s | - | - |
| 1787742938 | 22.78° C | 57% | 1023.8 hPa | 0 mm | 0 m/s | - | - |
| 1787742878 | 22.22° C | 56% | 1023.8 hPa | 0 mm | 0 m/s | - | - |
| 1787742818 | 22.22° C | 55% | 1023.8 hPa | 0 mm | 0.45 m/s, ° | - | - |
* Rain latest hour (hover to see other rain measurements)
** Current wind speed in m/s (hover to see current wind gust speed)